| time (UTC) | temp F | wind direction | speed MPH | gust MPH | rain 1hr in | rain 24hr in | rain mn in | humidity % | barometer mb |
| 20260902140043 | 82 | 33 | 1.0 | 9.0 | 0.00 | 0.18 | 0.01 | 94 | 1015.9 |
| 20260902135523 | 81 | 5 | 2.0 | 9.0 | 0.00 | 0.18 | 0.01 | 94 | 1015.9 |
| 20260902135020 | 81 | 13 | 2.0 | 7.0 | 0.00 | 0.18 | 0.01 | 95 | 1015.8 |
| 20260902134543 | 81 | 81 | 2.0 | 5.0 | 0.00 | 0.18 | 0.01 | 96 | 1015.9 |
| 20260902134022 | 80 | 61 | 2.0 | 8.0 | 0.00 | 0.18 | 0.01 | 96 | 1015.9 |
| 20260902133529 | 80 | 60 | 3.0 | 8.0 | 0.00 | 0.18 | 0.01 | 97 | 1015.8 |
| 20260902133049 | 80 | 42 | 3.0 | 8.0 | 0.00 | 0.18 | 0.01 | 97 | 1015.9 |
| 20260902132527 | 79 | 29 | 3.0 | 9.0 | 0.00 | 0.18 | 0.01 | 97 | 1015.9 |
| 20260902132024 | 79 | 38 | 4.0 | 9.0 | 0.00 | 0.18 | 0.01 | 97 | 1015.9 |
| 20260902131605 | 79 | 57 | 1.0 | 5.0 | 0.00 | 0.18 | 0.01 | 97 | 1015.9 |
| 20260902131023 | 79 | 351 | 1.0 | 4.0 | 0.00 | 0.18 | 0.01 | 97 | 1015.8 |
| 20260902130519 | 79 | 13 | 1.0 | 4.0 | 0.00 | 0.18 | 0.01 | 97 | 1015.9 |
| 20260902130052 | 80 | 0 | 0.0 | 5.0 | 0.00 | 0.18 | 0.01 | 97 | 1016.0 |
| 20260902125523 | 79 | 0 | 1.0 | 5.0 | 0.00 | 0.18 | 0.01 | 97 | 1016.0 |
| 20260902125023 | 79 | 31 | 1.0 | 5.0 | 0.00 | 0.18 | 0.01 | 97 | 1016.0 |
| 20260902124540 | 79 | 55 | 1.0 | 5.0 | 0.00 | 0.18 | 0.01 | 97 | 1016.0 |
| 20260902124024 | 79 | 0 | 0.0 | 4.0 | 0.00 | 0.18 | 0.01 | 97 | 1015.9 |
| 20260902123524 | 78 | 0 | 0.0 | 5.0 | 0.00 | 0.18 | 0.01 | 97 | 1016.0 |
| 20260902123048 | 78 | 0 | 1.0 | 5.0 | 0.00 | 0.18 | 0.01 | 97 | 1015.9 |
| 20260902122524 | 78 | 0 | 0.0 | 2.0 | 0.00 | 0.18 | 0.01 | 97 | 1015.9 |
| 20260902122020 | 77 | 0 | 0.0 | 2.0 | 0.00 | 0.18 | 0.01 | 97 | 1015.9 |
| 20260902121546 | 77 | 0 | 0.0 | 0.0 | 0.00 | 0.18 | 0.01 | 97 | 1015.9 |
| 20260902121026 | 77 | 0 | 0.0 | 0.0 | 0.00 | 0.18 | 0.01 | 97 | 1015.9 |
| 20260902120524 | 77 | 0 | 0.0 | 0.0 | 0.00 | 0.18 | 0.01 | 97 | 1015.8 |
| 20260902120049 | 77 | 0 | 0.0 | 0.0 | 0.00 | 0.18 | 0.01 | 97 | 1015.7 |
| 20260902115525 | 76 | 0 | 0.0 | 0.0 | 0.00 | 0.18 | 0.01 | 97 | 1015.7 |
| 20260902115025 | 76 | 0 | 0.0 | 0.0 | 0.00 | 0.18 | 0.01 | 97 | 1015.7 |
| 20260902114607 | 76 | 0 | 0.0 | 0.0 | 0.00 | 0.18 | 0.01 | 97 | 1015.6 |
| 20260902114022 | 76 | 0 | 0.0 | 0.0 | 0.00 | 0.18 | 0.01 | 97 | 1015.6 |
| 20260902113524 | 76 | 0 | 0.0 | 0.0 | 0.00 | 0.18 | 0.01 | 97 | 1015.7 |
| 20260902113042 | 76 | 0 | 0.0 | 0.0 | 0.00 | 0.18 | 0.01 | 97 | 1015.6 |
| 20260902112523 | 76 | 0 | 0.0 | 0.0 | 0.00 | 0.18 | 0.01 | 97 | 1015.5 |
| 20260902112023 | 75 | 0 | 0.0 | 0.0 | 0.00 | 0.18 | 0.01 | 97 | 1015.4 |
| 20260902111543 | 75 | 0 | 0.0 | 0.0 | 0.00 | 0.18 | 0.01 | 97 | 1015.4 |
| 20260902111024 | 75 | 0 | 0.0 | 0.0 | 0.00 | 0.18 | 0.01 | 97 | 1015.4 |
| 20260902110525 | 75 | 0 | 0.0 | 0.0 | 0.00 | 0.18 | 0.01 | 97 | 1015.3 |
| 20260902110100 | 74 | 0 | 0.0 | 0.0 | 0.00 | 0.18 | 0.01 | 97 | 1015.3 |
| 20260902105525 | 74 | 0 | 0.0 | 0.0 | 0.00 | 0.18 | 0.01 | 97 | 1015.3 |
| 20260902105029 | 74 | 0 | 0.0 | 0.0 | 0.00 | 0.18 | 0.01 | 97 | 1015.2 |
| 20260902104545 | 74 | 0 | 0.0 | 0.0 | 0.00 | 0.18 | 0.01 | 97 | 1015.2 |
| 20260902104026 | 74 | 0 | 0.0 | 0.0 | 0.00 | 0.18 | 0.01 | 97 | 1015.2 |
| 20260902103524 | 74 | 0 | 0.0 | 0.0 | 0.00 | 0.18 | 0.01 | 97 | 1015.2 |
| 20260902103050 | 74 | 0 | 0.0 | 0.0 | 0.00 | 0.18 | 0.01 | 97 | 1015.1 |
| 20260902102525 | 74 | 0 | 0.0 | 0.0 | 0.00 | 0.18 | 0.01 | 97 | 1015.0 |
| 20260902102023 | 74 | 0 | 0.0 | 0.0 | 0.00 | 0.18 | 0.01 | 97 | 1015.0 |
| 20260902101547 | 74 | 0 | 0.0 | 0.0 | 0.00 | 0.18 | 0.01 | 97 | 1015.1 |
| 20260902101025 | 74 | 0 | 0.0 | 0.0 | 0.00 | 0.18 | 0.01 | 97 | 1015.0 |
| 20260902100525 | 74 | 0 | 0.0 | 0.0 | 0.00 | 0.18 | 0.01 | 97 | 1014.9 |
| 20260902100050 | 74 | 0 | 0.0 | 0.0 | 0.00 | 0.18 | 0.01 | 97 | 1014.9 |
| 20260902095521 | 74 | 0 | 0.0 | 0.0 | 0.00 | 0.18 | 0.01 | 97 | 1014.9 |
| 20260902095023 | 74 | 0 | 0.0 | 0.0 | 0.00 | 0.18 | 0.01 | 97 | 1014.9 |
| 20260902094543 | 74 | 0 | 0.0 | 0.0 | 0.00 | 0.18 | 0.01 | 97 | 1014.9 |
| 20260902094026 | 74 | 0 | 0.0 | 0.0 | 0.00 | 0.18 | 0.01 | 97 | 1014.9 |
| 20260902093523 | 74 | 0 | 0.0 | 0.0 | 0.00 | 0.18 | 0.01 | 97 | 1014.8 |
| 20260902093043 | 74 | 0 | 0.0 | 0.0 | 0.00 | 0.18 | 0.01 | 97 | 1014.6 |
| 20260902092524 | 74 | 0 | 0.0 | 0.0 | 0.00 | 0.18 | 0.01 | 97 | 1014.6 |
| 20260902092024 | 74 | 0 | 0.0 | 0.0 | 0.00 | 0.18 | 0.01 | 97 | 1014.6 |
| 20260902091540 | 74 | 0 | 0.0 | 0.0 | 0.00 | 0.18 | 0.01 | 97 | 1014.6 |
| 20260902091025 | 74 | 0 | 0.0 | 0.0 | 0.00 | 0.18 | 0.01 | 97 | 1014.6 |
| 20260902090524 | 74 | 0 | 0.0 | 0.0 | 0.00 | 0.18 | 0.01 | 97 | 1014.4 |
| 20260902090044 | 74 | 0 | 0.0 | 0.0 | 0.00 | 0.18 | 0.01 | 97 | 1014.4 |
| 20260902085522 | 74 | 0 | 0.0 | 0.0 | 0.00 | 0.18 | 0.01 | 97 | 1014.4 |
| 20260902085023 | 74 | 0 | 0.0 | 0.0 | 0.00 | 0.18 | 0.01 | 97 | 1014.4 |
| 20260902084542 | 74 | 0 | 0.0 | 0.0 | 0.00 | 0.18 | 0.01 | 97 | 1014.4 |
| 20260902084023 | 74 | 0 | 0.0 | 0.0 | 0.00 | 0.18 | 0.01 | 97 | 1014.3 |
| 20260902083524 | 74 | 0 | 0.0 | 0.0 | 0.00 | 0.18 | 0.01 | 97 | 1014.5 |
| 20260902083047 | 75 | 0 | 0.0 | 0.0 | 0.00 | 0.18 | 0.01 | 97 | 1014.5 |
| 20260902082527 | 74 | 0 | 0.0 | 0.0 | 0.00 | 0.18 | 0.01 | 97 | 1014.5 |
| 20260902082024 | 74 | 0 | 0.0 | 0.0 | 0.00 | 0.18 | 0.01 | 97 | 1014.5 |
| 20260902081550 | 74 | 0 | 0.0 | 0.0 | 0.00 | 0.18 | 0.01 | 97 | 1014.6 |
| 20260902081024 | 74 | 0 | 0.0 | 0.0 | 0.00 | 0.18 | 0.01 | 97 | 1014.6 |
| 20260902080524 | 74 | 0 | 0.0 | 0.0 | 0.01 | 0.18 | 0.01 | 97 | 1014.6 |
| 20260902080050 | 74 | 0 | 0.0 | 0.0 | 0.01 | 0.18 | 0.01 | 97 | 1014.6 |
| 20260902075527 | 74 | 0 | 0.0 | 0.0 | 0.01 | 0.18 | 0.01 | 97 | 1014.6 |
| 20260902075023 | 74 | 0 | 0.0 | 0.0 | 0.01 | 0.18 | 0.01 | 97 | 1014.5 |
| 20260902074554 | 74 | 0 | 0.0 | 0.0 | 0.01 | 0.18 | 0.01 | 97 | 1014.5 |
| 20260902074026 | 74 | 0 | 0.0 | 0.0 | 0.01 | 0.18 | 0.01 | 97 | 1014.5 |
| 20260902073526 | 74 | 0 | 0.0 | 0.0 | 0.01 | 0.18 | 0.01 | 97 | 1014.5 |
| 20260902073052 | 75 | 0 | 0.0 | 0.0 | 0.01 | 0.18 | 0.01 | 97 | 1014.6 |
| 20260902072526 | 75 | 0 | 0.0 | 0.0 | 0.01 | 0.18 | 0.01 | 97 | 1014.6 |
| 20260902072026 | 75 | 0 | 0.0 | 0.0 | 0.01 | 0.18 | 0.01 | 97 | 1014.5 |
| 20260902071544 | 75 | 0 | 0.0 | 0.0 | 0.01 | 0.18 | 0.01 | 97 | 1014.5 |
| 20260902071028 | 75 | 0 | 0.0 | 0.0 | 0.01 | 0.18 | 0.01 | 97 | 1014.7 |
| 20260902070523 | 75 | 0 | 0.0 | 0.0 | 0.00 | 0.17 | 0.00 | 97 | 1014.7 |
| 20260902070042 | 75 | 0 | 0.0 | 0.0 | 0.00 | 0.17 | 0.00 | 97 | 1014.6 |
| 20260902065519 | 75 | 0 | 0.0 | 0.0 | 0.00 | 0.17 | 0.00 | 97 | 1014.7 |
| 20260902065025 | 75 | 0 | 0.0 | 0.0 | 0.00 | 0.17 | 0.00 | 97 | 1014.9 |
| 20260902064541 | 75 | 0 | 0.0 | 0.0 | 0.00 | 0.17 | 0.00 | 97 | 1015.0 |
| 20260902064024 | 75 | 0 | 0.0 | 0.0 | 0.00 | 0.17 | 0.00 | 97 | 1014.9 |
| 20260902063527 | 75 | 0 | 0.0 | 0.0 | 0.00 | 0.17 | 0.00 | 97 | 1015.0 |
| 20260902063050 | 75 | 0 | 0.0 | 0.0 | 0.00 | 0.17 | 0.00 | 97 | 1015.1 |
| 20260902062524 | 75 | 0 | 0.0 | 0.0 | 0.00 | 0.17 | 0.00 | 97 | 1015.1 |
| 20260902062023 | 75 | 0 | 0.0 | 0.0 | 0.00 | 0.17 | 0.00 | 97 | 1015.1 |
| 20260902061543 | 75 | 0 | 0.0 | 0.0 | 0.00 | 0.17 | 0.00 | 97 | 1015.0 |
| 20260902061030 | 75 | 0 | 0.0 | 0.0 | 0.00 | 0.17 | 0.00 | 97 | 1015.0 |
| 20260902060519 | 75 | 0 | 0.0 | 0.0 | 0.00 | 0.17 | 0.00 | 97 | 1015.0 |
| 20260902060110 | 75 | 0 | 0.0 | 0.0 | 0.00 | 0.17 | 0.00 | 97 | 1015.1 |
| 20260902055520 | 75 | 0 | 0.0 | 0.0 | 0.00 | 0.17 | 0.00 | 97 | 1015.2 |
| 20260902055026 | 75 | 0 | 0.0 | 0.0 | 0.00 | 0.17 | 0.00 | 97 | 1015.2 |
| 20260902054541 | 75 | 0 | 0.0 | 0.0 | 0.00 | 0.17 | 0.00 | 97 | 1015.4 |
| 20260902054024 | 75 | 0 | 0.0 | 0.0 | 0.00 | 0.17 | 0.00 | 97 | 1015.3 |
| 20260902053520 | 75 | 0 | 0.0 | 0.0 | 0.00 | 0.17 | 0.00 | 97 | 1015.3 |
| 20260902053042 | 76 | 0 | 0.0 | 0.0 | 0.00 | 0.17 | 0.00 | 97 | 1015.3 |
| 20260902052523 | 76 | 0 | 0.0 | 0.0 | 0.00 | 0.17 | 0.00 | 97 | 1015.3 |
| 20260902052018 | 76 | 0 | 0.0 | 0.0 | 0.00 | 0.17 | 0.00 | 97 | 1015.2 |
| 20260902051540 | 76 | 0 | 0.0 | 0.0 | 0.00 | 0.17 | 0.00 | 97 | 1015.3 |
| 20260902051020 | 76 | 0 | 0.0 | 0.0 | 0.00 | 0.17 | 0.00 | 97 | 1015.4 |
| 20260902050521 | 76 | 0 | 0.0 | 0.0 | 0.00 | 0.17 | 0.00 | 96 | 1015.2 |
| 20260902050041 | 76 | 0 | 0.0 | 0.0 | 0.00 | 0.17 | 0.00 | 97 | 1015.3 |
| 20260902045523 | 76 | 0 | 0.0 | 0.0 | 0.00 | 0.17 | 0.00 | 97 | 1015.3 |
| 20260902045024 | 76 | 0 | 0.0 | 0.0 | 0.00 | 0.17 | 0.00 | 96 | 1015.3 |
| 20260902044543 | 76 | 0 | 0.0 | 0.0 | 0.00 | 0.17 | 0.00 | 96 | 1015.3 |
| 20260902044023 | 76 | 0 | 0.0 | 0.0 | 0.00 | 0.17 | 0.00 | 96 | 1015.3 |
| 20260902043523 | 76 | 0 | 0.0 | 0.0 | 0.00 | 0.17 | 0.00 | 96 | 1015.3 |
| 20260902043048 | 76 | 0 | 0.0 | 0.0 | 0.00 | 0.17 | 0.00 | 96 | 1015.2 |
| 20260902042522 | 76 | 0 | 0.0 | 0.0 | 0.00 | 0.17 | 0.00 | 97 | 1015.4 |
| 20260902042019 | 76 | 0 | 0.0 | 0.0 | 0.00 | 0.17 | 0.00 | 97 | 1015.4 |
| 20260902041549 | 76 | 0 | 0.0 | 0.0 | 0.00 | 0.17 | 0.00 | 96 | 1015.4 |
| 20260902041020 | 76 | 0 | 0.0 | 0.0 | 0.00 | 0.17 | 0.00 | 96 | 1015.5 |
| 20260902040521 | 76 | 0 | 0.0 | 0.0 | 0.00 | 0.17 | 0.00 | 96 | 1015.5 |
| 20260902040041 | 77 | 0 | 0.0 | 0.0 | 0.00 | 0.17 | 0.00 | 96 | 1015.6 |
| 20260902035521 | 76 | 0 | 0.0 | 0.0 | 0.00 | 0.17 | 0.17 | 96 | 1015.7 |
| 20260902035023 | 77 | 0 | 0.0 | 0.0 | 0.00 | 0.17 | 0.17 | 96 | 1015.7 |
| 20260902034544 | 77 | 0 | 0.0 | 0.0 | 0.00 | 0.17 | 0.17 | 96 | 1015.7 |
| 20260902034023 | 77 | 0 | 0.0 | 0.0 | 0.00 | 0.17 | 0.17 | 96 | 1015.8 |
| 20260902033519 | 77 | 0 | 0.0 | 0.0 | 0.00 | 0.17 | 0.17 | 96 | 1015.9 |
| 20260902033049 | 77 | 0 | 0.0 | 0.0 | 0.00 | 0.17 | 0.17 | 96 | 1015.9 |
| 20260902032520 | 77 | 0 | 0.0 | 0.0 | 0.00 | 0.17 | 0.17 | 96 | 1015.9 |
| 20260902032024 | 77 | 0 | 0.0 | 0.0 | 0.00 | 0.17 | 0.17 | 96 | 1015.9 |
| 20260902031541 | 77 | 0 | 0.0 | 0.0 | 0.00 | 0.17 | 0.17 | 96 | 1015.9 |
| 20260902031020 | 77 | 0 | 0.0 | 0.0 | 0.00 | 0.17 | 0.17 | 96 | 1016.0 |
| 20260902030521 | 77 | 0 | 0.0 | 0.0 | 0.00 | 0.17 | 0.17 | 96 | 1015.9 |
| 20260902030048 | 77 | 0 | 0.0 | 0.0 | 0.00 | 0.17 | 0.17 | 96 | 1016.0 |
| 20260902025524 | 77 | 0 | 0.0 | 0.0 | 0.00 | 0.17 | 0.17 | 96 | 1016.0 |
| 20260902025025 | 77 | 0 | 0.0 | 2.0 | 0.00 | 0.17 | 0.17 | 96 | 1016.0 |
| 20260902024541 | 77 | 0 | 0.0 | 2.0 | 0.00 | 0.17 | 0.17 | 96 | 1016.0 |
| 20260902024018 | 77 | 55 | 0.0 | 2.0 | 0.00 | 0.17 | 0.17 | 96 | 1016.0 |
| 20260902023518 | 77 | 55 | 0.0 | 2.0 | 0.00 | 0.17 | 0.17 | 96 | 1016.0 |
| 20260902023044 | 77 | 0 | 0.0 | 0.0 | 0.00 | 0.17 | 0.17 | 96 | 1016.0 |
| 20260902022521 | 77 | 0 | 0.0 | 1.0 | 0.00 | 0.17 | 0.17 | 96 | 1016.0 |
| 20260902022022 | 77 | 0 | 0.0 | 1.0 | 0.00 | 0.17 | 0.17 | 96 | 1016.0 |
| 20260902021546 | 77 | 0 | 0.0 | 1.0 | 0.00 | 0.17 | 0.17 | 96 | 1016.0 |
| 20260902021022 | 77 | 0 | 0.0 | 0.0 | 0.00 | 0.17 | 0.17 | 96 | 1015.9 |
| 20260902020520 | 77 | 0 | 0.0 | 0.0 | 0.00 | 0.17 | 0.17 | 96 | 1015.8 |
| 20260902020041 | 77 | 0 | 0.0 | 0.0 | 0.00 | 0.17 | 0.17 | 96 | 1015.8 |
| 20260902015522 | 77 | 0 | 0.0 | 0.0 | 0.00 | 0.17 | 0.17 | 96 | 1015.9 |
| 20260902015019 | 77 | 0 | 0.0 | 0.0 | 0.00 | 0.17 | 0.17 | 96 | 1015.8 |
| 20260902014547 | 77 | 0 | 0.0 | 1.0 | 0.00 | 0.17 | 0.17 | 96 | 1015.8 |
| 20260902014020 | 77 | 0 | 0.0 | 1.0 | 0.00 | 0.17 | 0.17 | 96 | 1015.7 |
| 20260902013520 | 77 | 0 | 0.0 | 1.0 | 0.00 | 0.17 | 0.17 | 96 | 1015.7 |
| 20260902013047 | 77 | 0 | 0.0 | 0.0 | 0.00 | 0.17 | 0.17 | 96 | 1015.6 |
| 20260902012525 | 77 | 0 | 0.0 | 2.0 | 0.00 | 0.17 | 0.17 | 96 | 1015.6 |
| 20260902012024 | 77 | 0 | 0.0 | 2.0 | 0.00 | 0.17 | 0.17 | 96 | 1015.5 |
| 20260902011539 | 77 | 55 | 0.0 | 2.0 | 0.01 | 0.17 | 0.17 | 96 | 1015.4 |
| 20260902011024 | 77 | 55 | 0.0 | 2.0 | 0.01 | 0.17 | 0.17 | 96 | 1015.4 |
| 20260902010523 | 77 | 0 | 0.0 | 2.0 | 0.01 | 0.17 | 0.17 | 96 | 1015.5 |
| 20260902010040 | 77 | 40 | 0.0 | 1.0 | 0.02 | 0.17 | 0.17 | 96 | 1015.5 |
| 20260902005521 | 76 | 0 | 0.0 | 0.0 | 0.02 | 0.17 | 0.17 | 96 | 1015.4 |
| 20260902005020 | 76 | 0 | 0.0 | 0.0 | 0.02 | 0.17 | 0.17 | 96 | 1015.4 |
| 20260902004543 | 76 | 0 | 0.0 | 0.0 | 0.02 | 0.17 | 0.17 | 96 | 1015.4 |
| 20260902004020 | 76 | 0 | 0.0 | 0.0 | 0.02 | 0.17 | 0.17 | 96 | 1015.3 |
| 20260902003520 | 76 | 0 | 0.0 | 3.0 | 0.02 | 0.17 | 0.17 | 96 | 1015.4 |
| 20260902003053 | 76 | 0 | 0.0 | 3.0 | 0.02 | 0.17 | 0.17 | 96 | 1015.5 |
| 20260902002520 | 76 | 39 | 1.0 | 3.0 | 0.02 | 0.17 | 0.17 | 96 | 1015.5 |
| 20260902002027 | 76 | 45 | 1.0 | 3.0 | 0.02 | 0.16 | 0.16 | 96 | 1015.5 |
| 20260902001542 | 76 | 38 | 1.0 | 3.0 | 0.02 | 0.16 | 0.16 | 96 | 1015.4 |
| 20260902001020 | 76 | 40 | 0.0 | 2.0 | 0.02 | 0.16 | 0.16 | 96 | 1015.4 |
| 20260902000520 | 76 | 0 | 0.0 | 3.0 | 0.02 | 0.16 | 0.16 | 96 | 1015.4 |
| 20260902000108 | 76 | 0 | 0.0 | 3.0 | 0.01 | 0.15 | 0.15 | 95 | 1015.3 |
| 20260901235525 | 76 | 0 | 0.0 | 0.0 | 0.02 | 0.15 | 0.15 | 95 | 1015.3 |
| 20260901235024 | 76 | 0 | 0.0 | 0.0 | 0.02 | 0.15 | 0.15 | 95 | 1015.3 |
| 20260901234548 | 76 | 0 | 0.0 | 0.0 | 0.02 | 0.15 | 0.15 | 95 | 1015.3 |
| 20260901234027 | 76 | 0 | 0.0 | 1.0 | 0.03 | 0.15 | 0.15 | 95 | 1015.3 |
| 20260901233523 | 76 | 0 | 0.0 | 2.0 | 0.03 | 0.15 | 0.15 | 95 | 1015.4 |
| 20260901233052 | 76 | 0 | 0.0 | 2.0 | 0.03 | 0.15 | 0.15 | 95 | 1015.3 |
| 20260901232524 | 76 | 0 | 0.0 | 0.0 | 0.04 | 0.15 | 0.15 | 95 | 1015.3 |
| 20260901232026 | 76 | 0 | 0.0 | 0.0 | 0.10 | 0.14 | 0.14 | 95 | 1015.4 |
| 20260901231551 | 76 | 0 | 0.0 | 0.0 | 0.12 | 0.14 | 0.14 | 95 | 1015.3 |
| 20260901231024 | 76 | 0 | 0.0 | 0.0 | 0.14 | 0.14 | 0.14 | 95 | 1015.4 |
| 20260901230525 | 76 | 0 | 0.0 | 0.0 | 0.14 | 0.14 | 0.14 | 95 | 1015.4 |
| 20260901230103 | 76 | 0 | 0.0 | 0.0 | 0.14 | 0.14 | 0.14 | 94 | 1015.4 |
| 20260901225528 | 76 | 0 | 0.0 | 2.0 | 0.13 | 0.13 | 0.13 | 94 | 1015.3 |
| 20260901225025 | 76 | 0 | 0.0 | 2.0 | 0.13 | 0.13 | 0.13 | 94 | 1015.3 |
| 20260901224542 | 76 | 311 | 0.0 | 2.0 | 0.13 | 0.13 | 0.13 | 93 | 1015.3 |
| 20260901224026 | 76 | 0 | 0.0 | 4.0 | 0.12 | 0.12 | 0.12 | 93 | 1015.5 |
| 20260901223523 | 76 | 0 | 0.0 | 9.0 | 0.12 | 0.12 | 0.12 | 92 | 1015.5 |
| 20260901223055 | 77 | 76 | 3.0 | 13.0 | 0.12 | 0.12 | 0.12 | 91 | 1015.4 |
| 20260901222526 | 78 | 103 | 6.0 | 16.0 | 0.10 | 0.10 | 0.10 | 90 | 1015.5 |
| 20260901222028 | 79 | 75 | 8.0 | 16.0 | 0.03 | 0.03 | 0.03 | 88 | 1015.6 |
| 20260901221547 | 82 | 44 | 7.0 | 14.0 | 0.01 | 0.01 | 0.01 | 83 | 1015.6 |
| 20260901221024 | 83 | 79 | 3.0 | 7.0 | 0.00 | 0.00 | 0.00 | 83 | 1015.3 |
| 20260901220529 | 84 | 71 | 1.0 | 7.0 | 0.00 | 0.00 | 0.00 | 83 | 1015.1 |
| 20260901220109 | 84 | 64 | 4.0 | 10.0 | 0.00 | 0.00 | 0.00 | 82 | 1014.9 |
| 20260901215523 | 84 | 77 | 4.0 | 10.0 | 0.00 | 0.09 | 0.00 | 82 | 1014.9 |
| 20260901215025 | 84 | 81 | 4.0 | 8.0 | 0.00 | 0.09 | 0.00 | 80 | 1014.9 |
| 20260901214540 | 85 | 84 | 4.0 | 8.0 | 0.00 | 0.09 | 0.00 | 79 | 1014.7 |
| 20260901214024 | 86 | 82 | 4.0 | 10.0 | 0.00 | 0.09 | 0.00 | 78 | 1014.6 |
| 20260901213524 | 86 | 67 | 6.0 | 10.0 | 0.00 | 0.09 | 0.00 | 78 | 1014.5 |
| 20260901213112 | 86 | 34 | 5.0 | 9.0 | 0.00 | 0.09 | 0.00 | 77 | 1014.4 |
| 20260901212524 | 85 | 81 | 6.0 | 11.0 | 0.00 | 0.09 | 0.00 | 79 | 1014.4 |
| 20260901212025 | 86 | 92 | 6.0 | 11.0 | 0.00 | 0.09 | 0.00 | 76 | 1014.4 |
| 20260901211544 | 87 | 34 | 4.0 | 8.0 | 0.00 | 0.09 | 0.00 | 76 | 1014.6 |
| 20260901211024 | 87 | 44 | 2.0 | 10.0 | 0.00 | 0.09 | 0.00 | 77 | 1014.8 |
| 20260901210524 | 88 | 15 | 4.0 | 10.0 | 0.00 | 0.09 | 0.00 | 76 | 1014.8 |
| 20260901210048 | 87 | 66 | 6.0 | 10.0 | 0.00 | 0.09 | 0.00 | 74 | 1014.7 |
| 20260901205526 | 87 | 65 | 2.0 | 12.0 | 0.00 | 0.15 | 0.00 | 75 | 1014.8 |
| 20260901205025 | 86 | 35 | 4.0 | 12.0 | 0.00 | 0.15 | 0.00 | 76 | 1015.0 |
| 20260901204547 | 86 | 16 | 6.0 | 12.0 | 0.00 | 0.15 | 0.00 | 76 | 1014.9 |
| 20260901204023 | 86 | 88 | 4.0 | 12.0 | 0.00 | 0.15 | 0.00 | 77 | 1014.8 |
| 20260901203525 | 86 | 45 | 5.0 | 10.0 | 0.00 | 0.15 | 0.00 | 76 | 1014.7 |
| 20260901203058 | 86 | 38 | 3.0 | 14.0 | 0.00 | 0.15 | 0.00 | 77 | 1014.6 |
| 20260901202523 | 86 | 57 | 7.0 | 14.0 | 0.00 | 0.15 | 0.00 | 77 | 1014.6 |
| 20260901202027 | 85 | 74 | 6.0 | 11.0 | 0.00 | 0.15 | 0.00 | 78 | 1014.7 |
| 20260901201542 | 85 | 82 | 5.0 | 11.0 | 0.00 | 0.15 | 0.00 | 75 | 1014.9 |
| 20260901201026 | 86 | 74 | 3.0 | 9.0 | 0.00 | 0.15 | 0.00 | 74 | 1015.0 |
| 20260901200525 | 87 | 84 | 3.0 | 9.0 | 0.00 | 0.15 | 0.00 | 76 | 1015.0 |
| 20260901200048 | 86 | 90 | 4.0 | 8.0 | 0.00 | 0.15 | 0.00 | 78 | 1014.9 |
| 20260901195524 | 85 | 115 | 2.0 | 8.0 | 0.00 | 0.15 | 0.00 | 82 | 1015.1 |
| 20260901195023 | 85 | 70 | 4.0 | 8.0 | 0.00 | 0.15 | 0.00 | 79 | 1015.2 |
| 20260901194549 | 85 | 82 | 3.0 | 9.0 | 0.00 | 0.15 | 0.00 | 80 | 1015.3 |
| 20260901194025 | 85 | 49 | 5.0 | 12.0 | 0.00 | 0.15 | 0.00 | 79 | 1015.1 |
| 20260901193524 | 86 | 40 | 5.0 | 13.0 | 0.00 | 0.15 | 0.00 | 79 | 1015.1 |
| 20260901193051 | 87 | 56 | 8.0 | 16.0 | 0.00 | 0.15 | 0.00 | 75 | 1015.1 |
| 20260901192524 | 87 | 70 | 7.0 | 16.0 | 0.00 | 0.15 | 0.00 | 76 | 1015.1 |
| 20260901192025 | 87 | 86 | 5.0 | 16.0 | 0.00 | 0.15 | 0.00 | 76 | 1015.3 |
| 20260901191547 | 86 | 56 | 6.0 | 16.0 | 0.00 | 0.15 | 0.00 | 77 | 1015.3 |
| 20260901191025 | 85 | 60 | 9.0 | 16.0 | 0.00 | 0.15 | 0.00 | 77 | 1015.2 |
| 20260901190524 | 88 | 67 | 9.0 | 16.0 | 0.00 | 0.15 | 0.00 | 74 | 1015.3 |
| 20260901190044 | 87 | 120 | 2.0 | 8.0 | 0.00 | 0.15 | 0.00 | 78 | 1015.2 |
| 20260901185526 | 86 | 0 | 1.0 | 4.0 | 0.00 | 0.15 | 0.00 | 78 | 1015.2 |
| 20260901185024 | 86 | 286 | 0.0 | 4.0 | 0.00 | 0.15 | 0.00 | 84 | 1015.4 |
| 20260901184540 | 86 | 290 | 1.0 | 4.0 | 0.00 | 0.15 | 0.00 | 80 | 1015.5 |
| 20260901184025 | 86 | 271 | 1.0 | 4.0 | 0.00 | 0.15 | 0.00 | 81 | 1015.4 |
| 20260901183525 | 85 | 264 | 0.0 | 3.0 | 0.00 | 0.15 | 0.00 | 83 | 1015.5 |
| 20260901183055 | 83 | 280 | 1.0 | 6.0 | 0.00 | 0.15 | 0.00 | 83 | 1015.5 |
| 20260901182524 | 83 | 286 | 1.0 | 9.0 | 0.00 | 0.15 | 0.00 | 83 | 1015.6 |
| 20260901182025 | 83 | 258 | 3.0 | 9.0 | 0.00 | 0.15 | 0.00 | 84 | 1015.8 |
| 20260901181547 | 82 | 277 | 5.0 | 9.0 | 0.00 | 0.15 | 0.00 | 86 | 1015.7 |
| 20260901181023 | 81 | 279 | 5.0 | 10.0 | 0.00 | 0.15 | 0.00 | 89 | 1015.8 |
| 20260901180527 | 79 | 290 | 5.0 | 10.0 | 0.00 | 0.15 | 0.00 | 88 | 1015.8 |
| 20260901180043 | 79 | 276 | 3.0 | 11.0 | 0.00 | 0.15 | 0.00 | 86 | 1016.0 |
| 20260901175521 | 81 | 266 | 5.0 | 11.0 | 0.00 | 0.15 | 0.00 | 81 | 1016.1 |
| 20260901175025 | 84 | 279 | 4.0 | 9.0 | 0.00 | 0.15 | 0.00 | 81 | 1016.2 |
| 20260901174542 | 85 | 284 | 1.0 | 6.0 | 0.00 | 0.15 | 0.00 | 80 | 1016.2 |
| 20260901174025 | 85 | 308 | 1.0 | 10.0 | 0.00 | 0.15 | 0.00 | 79 | 1016.3 |
| 20260901173524 | 88 | 5 | 4.0 | 10.0 | 0.00 | 0.15 | 0.00 | 74 | 1016.3 |
| 20260901173057 | 90 | 0 | 1.0 | 10.0 | 0.00 | 0.15 | 0.00 | 72 | 1016.2 |
| 20260901172524 | 90 | 251 | 4.0 | 10.0 | 0.00 | 0.15 | 0.00 | 74 | 1016.3 |
| 20260901172025 | 89 | 69 | 3.0 | 6.0 | 0.00 | 0.15 | 0.00 | 72 | 1016.2 |
| 20260901171548 | 89 | 61 | 0.0 | 6.0 | 0.00 | 0.15 | 0.00 | 75 | 1016.3 |
| 20260901171026 | 89 | 86 | 1.0 | 7.0 | 0.00 | 0.15 | 0.00 | 74 | 1016.2 |
| 20260901170523 | 88 | 48 | 2.0 | 7.0 | 0.00 | 0.15 | 0.00 | 74 | 1016.2 |
| 20260901170048 | 87 | 0 | 0.0 | 4.0 | 0.00 | 0.15 | 0.00 | 79 | 1016.3 |
| 20260901165526 | 88 | 256 | 1.0 | 4.0 | 0.00 | 0.15 | 0.00 | 77 | 1016.4 |
| 20260901165025 | 87 | 0 | 0.0 | 4.0 | 0.00 | 0.15 | 0.00 | 79 | 1016.4 |
| 20260901164550 | 87 | 0 | 1.0 | 4.0 | 0.00 | 0.15 | 0.00 | 79 | 1016.5 |
| 20260901164028 | 87 | 29 | 1.0 | 7.0 | 0.00 | 0.15 | 0.00 | 79 | 1016.5 |
| 20260901163524 | 89 | 48 | 3.0 | 7.0 | 0.00 | 0.15 | 0.00 | 74 | 1016.6 |
| 20260901163043 | 88 | 55 | 3.0 | 6.0 | 0.00 | 0.15 | 0.00 | 78 | 1016.6 |
| 20260901162524 | 87 | 0 | 0.0 | 6.0 | 0.00 | 0.15 | 0.00 | 79 | 1016.6 |
| 20260901162023 | 87 | 275 | 1.0 | 4.0 | 0.00 | 0.15 | 0.00 | 75 | 1016.7 |
| 20260901161542 | 86 | 0 | 0.0 | 4.0 | 0.00 | 0.15 | 0.00 | 78 | 1016.7 |
| 20260901161024 | 87 | 5 | 1.0 | 4.0 | 0.00 | 0.15 | 0.00 | 78 | 1016.8 |
| 20260901160525 | 86 | 0 | 0.0 | 5.0 | 0.00 | 0.15 | 0.00 | 82 | 1016.8 |
| 20260901160048 | 86 | 0 | 0.0 | 5.0 | 0.00 | 0.15 | 0.00 | 81 | 1016.8 |
| 20260901155524 | 86 | 91 | 3.0 | 8.0 | 0.00 | 0.15 | 0.00 | 78 | 1016.9 |
| 20260901155026 | 86 | 36 | 3.0 | 8.0 | 0.00 | 0.15 | 0.00 | 80 | 1017.0 |
| 20260901154541 | 86 | 91 | 3.0 | 8.0 | 0.00 | 0.15 | 0.00 | 78 | 1017.0 |
| 20260901154025 | 86 | 63 | 3.0 | 8.0 | 0.00 | 0.15 | 0.00 | 83 | 1017.0 |
| 20260901153525 | 85 | 41 | 2.0 | 6.0 | 0.00 | 0.15 | 0.00 | 86 | 1017.0 |
| 20260901153049 | 84 | 40 | 1.0 | 6.0 | 0.00 | 0.15 | 0.00 | 84 | 1016.9 |
| 20260901152525 | 83 | 55 | 1.0 | 4.0 | 0.00 | 0.15 | 0.00 | 85 | 1017.0 |
| 20260901152027 | 84 | 289 | 1.0 | 7.0 | 0.00 | 0.15 | 0.00 | 82 | 1017.0 |
| 20260901151547 | 85 | 0 | 2.0 | 7.0 | 0.00 | 0.15 | 0.00 | 86 | 1017.0 |
| 20260901151026 | 84 | 265 | 2.0 | 6.0 | 0.00 | 0.15 | 0.00 | 86 | 1017.1 |
| 20260901150525 | 85 | 53 | 1.0 | 6.0 | 0.00 | 0.15 | 0.00 | 87 | 1017.0 |
| 20260901150043 | 85 | 80 | 2.0 | 5.0 | 0.00 | 0.15 | 0.00 | 85 | 1017.0 |
| 20260901145523 | 85 | 360 | 2.0 | 5.0 | 0.00 | 0.15 | 0.00 | 86 | 1017.0 |
| 20260901145026 | 84 | 51 | 3.0 | 5.0 | 0.00 | 0.15 | 0.00 | 87 | 1017.0 |
| 20260901144541 | 82 | 24 | 2.0 | 5.0 | 0.00 | 0.15 | 0.00 | 89 | 1017.0 |
| 20260901144025 | 84 | 0 | 0.0 | 5.0 | 0.00 | 0.15 | 0.00 | 88 | 1017.0 |
| 20260901143526 | 83 | 216 | 1.0 | 5.0 | 0.00 | 0.15 | 0.00 | 87 | 1016.8 |
| 20260901143050 | 84 | 74 | 1.0 | 4.0 | 0.00 | 0.15 | 0.00 | 90 | 1016.8 |
| 20260901142525 | 83 | 59 | 2.0 | 5.0 | 0.00 | 0.15 | 0.00 | 91 | 1016.7 |
| 20260901142022 | 83 | 65 | 2.0 | 7.0 | 0.00 | 0.15 | 0.00 | 91 | 1016.5 |
| 20260901141545 | 81 | 39 | 4.0 | 8.0 | 0.00 | 0.15 | 0.00 | 93 | 1016.6 |
| 20260901141030 | 81 | 51 | 4.0 | 8.0 | 0.00 | 0.15 | 0.00 | 95 | 1016.5 |
| 20260901140522 | 80 | 36 | 3.0 | 6.0 | 0.00 | 0.15 | 0.00 | 96 | 1016.6 |